Time,TemperatureF,DewpointF,PressureIn,WindDirection,WindDirectionDegrees,WindSpeedMPH,WindSpeedGustMPH,Humidity,HourlyPrecipIn,Conditions,Clouds,dailyrainin,SoftwareType,DateUTC
2013-03-13 00:03:00,28.0,28.0,30.03,WSW,247,2.0,5.0,100,0.00,,,0.00,,2013-03-13 04:03:00,
2013-03-13 00:13:00,28.0,28.0,30.03,WSW,247,2.0,5.0,100,0.00,,,0.00,,2013-03-13 04:13:00,
2013-03-13 00:22:00,29.0,29.0,30.02,WSW,247,1.0,3.0,100,0.00,,,0.39,,2013-03-13 04:22:00,
2013-03-13 00:32:00,28.0,28.0,30.01,WSW,247,3.0,8.0,100,0.00,,,0.00,,2013-03-13 04:32:00,
2013-03-13 00:43:00,28.0,28.0,30.01,WSW,247,3.0,8.0,100,0.00,,,0.00,,2013-03-13 04:43:00,
2013-03-13 00:53:00,29.0,29.0,30.02,West,270,5.0,8.0,100,0.00,,,0.00,,2013-03-13 04:53:00,
2013-03-13 01:02:00,28.0,28.0,30.01,SW,225,4.0,10.0,100,0.00,,,0.00,,2013-03-13 05:02:00,
2013-03-13 01:12:00,28.0,28.0,30.01,SW,225,4.0,10.0,100,0.00,,,0.00,,2013-03-13 05:12:00,
2013-03-13 01:22:00,29.0,29.0,30.01,WNW,292,5.0,9.0,100,0.00,,,0.39,,2013-03-13 05:22:00,
2013-03-13 01:32:00,28.0,28.0,30.01,West,270,6.0,9.0,100,0.00,,,0.39,,2013-03-13 05:32:00,
2013-03-13 01:42:00,28.0,28.0,30.01,West,270,6.0,9.0,100,0.00,,,0.39,,2013-03-13 05:42:00,
2013-03-13 01:52:00,28.0,28.0,30.01,West,270,6.0,13.0,100,0.00,,,0.39,,2013-03-13 05:52:00,
2013-03-13 02:02:00,27.0,27.0,30.02,WNW,292,7.0,12.0,100,0.00,,,0.39,,2013-03-13 06:02:00,
2013-03-13 02:12:00,27.0,27.0,30.02,WNW,292,7.0,12.0,100,0.00,,,0.39,,2013-03-13 06:12:00,
2013-03-13 02:23:00,27.0,27.0,30.01,West,270,6.0,9.0,100,0.00,,,0.39,,2013-03-13 06:23:00,
2013-03-13 02:32:00,26.0,26.0,30.02,WSW,247,7.0,12.0,100,0.00,,,0.39,,2013-03-13 06:32:00,
2013-03-13 02:42:00,26.0,26.0,30.02,WSW,247,7.0,12.0,100,0.00,,,0.39,,2013-03-13 06:42:00,
2013-03-13 02:53:00,26.0,26.0,30.02,WNW,292,5.0,14.0,100,0.00,,,0.39,,2013-03-13 06:53:00,
2013-03-13 03:02:00,25.0,25.0,30.02,West,270,6.0,11.0,100,0.00,,,0.39,,2013-03-13 07:02:00,
2013-03-13 03:12:00,25.0,25.0,30.02,West,270,6.0,11.0,100,0.00,,,0.39,,2013-03-13 07:12:00,
2013-03-13 03:20:00,25.0,25.0,30.02,WSW,247,7.0,15.0,100,0.00,,,0.39,,2013-03-13 07:20:00,
2013-03-13 03:22:00,25.0,25.0,30.03,WSW,247,6.0,8.0,100,0.00,,,0.39,,2013-03-13 07:22:00,
2013-03-13 03:32:00,25.0,25.0,30.03,West,270,7.0,9.0,100,0.00,,,0.39,,2013-03-13 07:32:00,
2013-03-13 03:42:00,25.0,25.0,30.03,West,270,7.0,9.0,100,0.00,,,0.39,,2013-03-13 07:42:00,
2013-03-13 03:53:00,25.0,25.0,30.02,WSW,247,7.0,15.0,100,0.00,,,0.39,,2013-03-13 07:53:00,
2013-03-13 04:03:00,25.0,25.0,30.02,WSW,247,7.0,15.0,100,0.00,,,0.39,,2013-03-13 08:03:00,
2013-03-13 04:12:00,25.0,25.0,30.02,WSW,247,7.0,15.0,100,0.00,,,0.39,,2013-03-13 08:12:00,
2013-03-13 09:53:00,24.0,24.0,30.11,WNW,292,6.0,11.0,100,0.00,,,0.00,,2013-03-13 13:53:00,
2013-03-13 10:03:00,24.0,24.0,30.13,WSW,247,4.0,12.0,100,0.00,,,0.00,,2013-03-13 14:03:00,
2013-03-13 10:12:00,24.0,24.0,30.13,WSW,247,4.0,12.0,100,0.00,,,0.00,,2013-03-13 14:12:00,
2013-03-13 10:22:00,24.0,24.0,30.12,West,270,6.0,7.0,100,0.00,,,0.00,,2013-03-13 14:22:00,
2013-03-13 10:33:00,24.0,24.0,30.13,WNW,292,7.0,9.0,100,0.00,,,0.00,,2013-03-13 14:33:00,
2013-03-13 10:42:00,24.0,24.0,30.13,WNW,292,7.0,9.0,100,0.00,,,0.00,,2013-03-13 14:42:00,
2013-03-13 10:52:00,24.0,24.0,30.13,West,270,7.0,10.0,100,0.00,,,0.00,,2013-03-13 14:52:00,
2013-03-13 11:03:00,24.0,24.0,30.13,West,270,7.0,12.0,100,0.00,,,0.00,,2013-03-13 15:03:00,
2013-03-13 11:12:00,24.0,24.0,30.13,West,270,7.0,12.0,100,0.00,,,0.00,,2013-03-13 15:12:00,
2013-03-13 11:22:00,23.0,23.0,30.16,West,270,8.0,13.0,100,0.00,,,0.00,,2013-03-13 15:22:00,
2013-03-13 11:32:00,24.0,24.0,30.15,WSW,247,5.0,9.0,100,0.00,,,0.00,,2013-03-13 15:32:00,
2013-03-13 11:42:00,24.0,24.0,30.15,WSW,247,5.0,9.0,100,0.00,,,0.00,,2013-03-13 15:42:00,
2013-03-13 11:53:00,25.0,25.0,30.16,WNW,292,6.0,14.0,98,0.00,,,0.00,,2013-03-13 15:53:00,
2013-03-13 12:03:00,25.0,24.0,30.16,West,270,6.0,9.0,96,0.00,,,0.00,,2013-03-13 16:03:00,
2013-03-13 12:12:00,25.0,24.0,30.16,West,270,6.0,9.0,96,0.00,,,0.00,,2013-03-13 16:12:00,
2013-03-13 12:22:00,25.0,23.0,30.16,SW,225,9.0,12.0,93,0.00,,,0.00,,2013-03-13 16:22:00,
2013-03-13 12:32:00,26.0,23.0,30.18,WSW,247,8.0,14.0,89,0.00,,,0.00,,2013-03-13 16:32:00,
2013-03-13 12:42:00,26.0,23.0,30.18,WSW,247,8.0,14.0,89,0.00,,,0.00,,2013-03-13 16:42:00,
2013-03-13 12:52:00,26.0,23.0,30.16,WSW,247,8.0,15.0,88,0.00,,,0.00,,2013-03-13 16:52:00,
2013-03-13 13:02:00,27.0,23.0,30.16,WNW,292,8.0,13.0,84,0.00,,,0.00,,2013-03-13 17:02:00,
2013-03-13 13:12:00,27.0,23.0,30.16,WNW,292,8.0,13.0,84,0.00,,,0.00,,2013-03-13 17:12:00,
2013-03-13 13:22:00,26.0,25.0,30.18,SW,225,6.0,10.0,96,0.00,,,0.00,,2013-03-13 17:22:00,
2013-03-13 13:32:00,26.0,24.0,30.19,WSW,247,8.0,10.0,92,0.00,,,0.00,,2013-03-13 17:32:00,
2013-03-13 13:42:00,26.0,24.0,30.19,WSW,247,8.0,10.0,92,0.00,,,0.00,,2013-03-13 17:42:00,
2013-03-13 13:53:00,27.0,25.0,30.20,WNW,292,8.0,12.0,91,0.00,,,0.00,,2013-03-13 17:53:00,
2013-03-13 14:02:00,26.0,26.0,30.19,WNW,292,7.0,14.0,99,0.00,,,0.00,,2013-03-13 18:02:00,
2013-03-13 14:12:00,26.0,26.0,30.19,WNW,292,7.0,14.0,99,0.00,,,0.00,,2013-03-13 18:12:00,
2013-03-13 14:22:00,26.0,25.0,30.20,WNW,292,7.0,13.0,94,0.00,,,0.00,,2013-03-13 18:22:00,
2013-03-13 14:33:00,24.0,24.0,30.20,West,270,8.0,14.0,100,0.00,,,0.00,,2013-03-13 18:33:00,
2013-03-13 14:42:00,24.0,24.0,30.20,West,270,8.0,14.0,100,0.00,,,0.00,,2013-03-13 18:42:00,
2013-03-13 14:52:00,26.0,26.0,30.21,WNW,292,7.0,16.0,100,0.00,,,0.00,,2013-03-13 18:52:00,
2013-03-13 15:02:00,25.0,25.0,30.20,WNW,292,8.0,20.0,99,0.00,,,0.00,,2013-03-13 19:02:00,
2013-03-13 15:12:00,25.0,25.0,30.20,WNW,292,8.0,20.0,99,0.00,,,0.00,,2013-03-13 19:12:00,
2013-03-13 15:22:00,26.0,24.0,30.22,West,270,11.0,18.0,91,0.00,,,0.00,,2013-03-13 19:22:00,
2013-03-13 15:32:00,27.0,23.0,30.21,WNW,292,7.0,8.0,86,0.00,,,0.00,,2013-03-13 19:32:00,
2013-03-13 15:43:00,27.0,23.0,30.21,WNW,292,7.0,8.0,86,0.00,,,0.00,,2013-03-13 19:43:00,
2013-03-13 15:52:00,26.0,23.0,30.21,West,270,9.0,18.0,90,0.00,,,0.00,,2013-03-13 19:52:00,
2013-03-13 16:02:00,26.0,23.0,30.22,West,270,8.0,13.0,89,0.00,,,0.00,,2013-03-13 20:02:00,
2013-03-13 16:12:00,26.0,23.0,30.22,West,270,8.0,13.0,89,0.00,,,0.00,,2013-03-13 20:12:00,
2013-03-13 16:22:00,25.0,25.0,30.23,NNW,337,8.0,14.0,100,0.00,,,0.00,,2013-03-13 20:22:00,
2013-03-13 16:32:00,25.0,25.0,30.23,WNW,292,6.0,10.0,100,0.00,,,0.00,,2013-03-13 20:32:00,
2013-03-13 16:42:00,25.0,25.0,30.23,WNW,292,6.0,10.0,100,0.00,,,0.00,,2013-03-13 20:42:00,
2013-03-13 16:52:00,26.0,26.0,30.24,WSW,247,8.0,14.0,100,0.00,,,0.00,,2013-03-13 20:52:00,
2013-03-13 17:02:00,26.0,25.0,30.24,West,270,9.0,9.0,96,0.00,,,0.00,,2013-03-13 21:02:00,
2013-03-13 17:12:00,26.0,25.0,30.24,West,270,9.0,9.0,96,0.00,,,0.00,,2013-03-13 21:12:00,
2013-03-13 17:22:00,25.0,25.0,30.26,WNW,292,7.0,12.0,100,0.00,,,0.00,,2013-03-13 21:22:00,
2013-03-13 17:33:00,26.0,23.0,30.26,WNW,292,10.0,18.0,88,0.00,,,0.00,,2013-03-13 21:33:00,
2013-03-13 17:42:00,26.0,23.0,30.26,WNW,292,10.0,18.0,88,0.00,,,0.00,,2013-03-13 21:42:00,
2013-03-13 17:52:00,26.0,22.0,30.25,West,270,7.0,14.0,84,0.00,,,0.00,,2013-03-13 21:52:00,
2013-03-13 18:02:00,27.0,23.0,30.28,West,270,8.0,13.0,85,0.00,,,0.00,,2013-03-13 22:02:00,
2013-03-13 18:12:00,27.0,23.0,30.28,West,270,8.0,13.0,85,0.00,,,0.00,,2013-03-13 22:12:00,
2013-03-13 18:22:00,26.0,22.0,30.28,West,270,8.0,12.0,84,0.00,,,0.00,,2013-03-13 22:22:00,
2013-03-13 18:32:00,26.0,21.0,30.29,NW,315,8.0,15.0,82,0.00,,,0.00,,2013-03-13 22:32:00,
2013-03-13 18:42:00,26.0,21.0,30.29,NW,315,8.0,15.0,82,0.00,,,0.00,,2013-03-13 22:42:00,
2013-03-13 18:52:00,26.0,21.0,30.27,WNW,292,8.0,15.0,81,0.00,,,0.00,,2013-03-13 22:52:00,
2013-03-13 19:02:00,26.0,20.0,30.27,West,270,6.0,11.0,78,0.00,,,0.00,,2013-03-13 23:02:00,
2013-03-13 19:12:00,26.0,20.0,30.27,West,270,6.0,11.0,78,0.00,,,0.00,,2013-03-13 23:12:00,
2013-03-13 19:22:00,26.0,19.0,30.28,WNW,292,10.0,18.0,74,0.00,,,0.00,,2013-03-13 23:22:00,
2013-03-13 19:32:00,26.0,18.0,30.29,WNW,292,6.0,26.0,72,0.00,,,0.00,,2013-03-13 23:32:00,
2013-03-13 19:42:00,26.0,18.0,30.29,WNW,292,6.0,26.0,72,0.00,,,0.00,,2013-03-13 23:42:00,
2013-03-13 19:52:00,25.0,19.0,30.29,North,360,8.0,17.0,76,0.00,,,0.00,,2013-03-13 23:52:00,
2013-03-13 20:02:00,25.0,20.0,30.29,WNW,292,4.0,7.0,81,0.00,,,0.00,,2013-03-14 00:02:00,
2013-03-13 20:13:00,25.0,20.0,30.29,WNW,292,4.0,7.0,81,0.00,,,0.00,,2013-03-14 00:13:00,
2013-03-13 20:22:00,24.0,19.0,30.29,WSW,247,5.0,9.0,81,0.00,,,0.00,,2013-03-14 00:22:00,
2013-03-13 20:32:00,24.0,19.0,30.31,West,270,4.0,6.0,81,0.00,,,0.00,,2013-03-14 00:32:00,
2013-03-13 20:42:00,24.0,19.0,30.31,West,270,4.0,6.0,81,0.00,,,0.00,,2013-03-14 00:42:00,
2013-03-13 20:52:00,24.0,19.0,30.31,West,270,4.0,8.0,82,0.00,,,0.00,,2013-03-14 00:52:00,
2013-03-13 21:02:00,24.0,20.0,30.32,West,270,3.0,6.0,83,0.00,,,0.00,,2013-03-14 01:02:00,
2013-03-13 21:12:00,24.0,20.0,30.32,West,270,3.0,6.0,83,0.00,,,0.00,,2013-03-14 01:12:00,
2013-03-13 21:22:00,23.0,19.0,30.32,WNW,292,4.0,5.0,85,0.00,,,0.00,,2013-03-14 01:22:00,
2013-03-13 21:32:00,23.0,19.0,30.32,NW,315,4.0,7.0,85,0.00,,,0.00,,2013-03-14 01:32:00,
2013-03-13 21:42:00,23.0,19.0,30.32,NW,315,4.0,7.0,85,0.00,,,0.00,,2013-03-14 01:42:00,
2013-03-13 21:53:00,23.0,20.0,30.33,West,270,3.0,4.0,87,0.00,,,0.00,,2013-03-14 01:53:00,
2013-03-13 22:02:00,23.0,20.0,30.33,WNW,292,3.0,6.0,87,0.00,,,0.00,,2013-03-14 02:02:00,
2013-03-13 22:12:00,23.0,20.0,30.33,WNW,292,3.0,6.0,87,0.00,,,0.00,,2013-03-14 02:12:00,
2013-03-13 22:22:00,22.0,19.0,30.33,West,270,2.0,7.0,87,0.00,,,0.00,,2013-03-14 02:22:00,
2013-03-13 22:32:00,22.0,19.0,30.33,WNW,292,2.0,7.0,87,0.00,,,0.00,,2013-03-14 02:32:00,
2013-03-13 22:42:00,22.0,19.0,30.33,WNW,292,2.0,7.0,87,0.00,,,0.00,,2013-03-14 02:42:00,
2013-03-13 22:52:00,22.0,19.0,30.33,WNW,292,2.0,7.0,87,0.00,,,0.00,,2013-03-14 02:52:00,
2013-03-13 23:02:00,22.0,18.0,30.34,WNW,292,3.0,8.0,85,0.00,,,0.00,,2013-03-14 03:02:00,
2013-03-13 23:12:00,22.0,18.0,30.34,WNW,292,3.0,8.0,85,0.00,,,0.00,,2013-03-14 03:12:00,
2013-03-13 23:23:00,22.0,18.0,30.34,WNW,292,2.0,5.0,86,0.00,,,0.00,,2013-03-14 03:23:00,
2013-03-13 23:32:00,22.0,18.0,30.34,WNW,292,4.0,4.0,85,0.00,,,0.00,,2013-03-14 03:32:00,
2013-03-13 23:42:00,22.0,18.0,30.34,WNW,292,4.0,4.0,85,0.00,,,0.00,,2013-03-14 03:42:00,
2013-03-13 23:53:00,22.0,18.0,30.35,WNW,292,2.0,3.0,85,0.00,,,0.00,,2013-03-14 03:53:00,